Location: Unspecified
(0.0000°N, 0.0000°E)
Time: 08:33:39
(UTC+00:00)

ISS - Pass Details

Date: 04 November 2024
Orbit: 407 x 418 km, 51.6° (Epoch: 11 November)

Event Time Altitude Azimuth Distance (km) Brightness Sun altitude
Rises 19:54:31 0° 228° (SW) 2,359 1.0 -31.4°
Reaches altitude 10° 19:56:43 10° 237° (WSW) 1,492 -0.2 -31.9°
Enters shadow 19:56:52 11° 238° (WSW) 1,436 -0.3 -31.9°
